,,PA_Meas_PMT16A,,PR_Meas_QMR101_102,,RH_Meas_QMH101,,SR_Meas_QMS101,,TA_Meas_QMH101,,GenWind,,GenWind,
time,status,PA,status,PR,status,RH,status,SR,status,TA,status,DirAvg,status,SpdAvg,
2012-02-07, 00:00:05,VALID,917.96,VALID,0,VALID,95.4528,VALID,0,VALID,20.0148,VALID,105,VALID,0.983594,
2012-02-07, 00:01:05,VALID,917.952,VALID,0,VALID,95.5138,VALID,0,VALID,19.9758,VALID,105,VALID,0.810938,
2012-02-07, 00:02:05,VALID,917.959,VALID,0,VALID,95.6357,VALID,0,VALID,19.9758,VALID,105,VALID,0.837109,
2012-02-07, 00:03:05,VALID,917.912,VALID,0,VALID,95.6891,VALID,0,VALID,19.9758,VALID,105,VALID,1.03047,
2012-02-07, 00:04:05,VALID,917.935,VALID,0,VALID,95.712,VALID,0,VALID,19.9758,VALID,105,VALID,1.07344,
2012-02-07, 00:05:05,VALID,917.906,VALID,0,VALID,95.7501,VALID,0,VALID,19.9758,VALID,113,VALID,1.29609,
2012-02-07, 00:06:05,VALID,917.875,VALID,0,VALID,95.8111,VALID,0,VALID,19.9563,VALID,113,VALID,1.06211,
2012-02-07, 00:07:05,VALID,917.895,VALID,0,VALID,95.834,VALID,0,VALID,19.9758,VALID,113,VALID,0.693359,
2012-02-07, 00:08:05,VALID,917.858,VALID,0,VALID,95.8721,VALID,0,VALID,19.9758,VALID,135,VALID,1.06133,
2012-02-07, 00:09:05,VALID,917.865,VALID,0,VALID,95.9102,VALID,0,VALID,19.9968,VALID,160,VALID,0.685547,
2012-02-07, 00:10:05,VALID,917.822,VALID,0,VALID,95.9102,VALID,0,VALID,19.9758,VALID,160,VALID,0.392969,
2012-02-07, 00:11:05,VALID,917.773,VALID,0,VALID,95.9407,VALID,0,VALID,19.9953,VALID,160,VALID,0.626953,
2012-02-07, 00:12:05,VALID,917.74,VALID,0,VALID,95.9254,VALID,0,VALID,19.9758,VALID,127,VALID,0.684375,
2012-02-07, 00:13:05,VALID,917.718,VALID,0,VALID,95.9483,VALID,0.107441,VALID,19.9743,VALID,127,VALID,0.822656,
2012-02-07, 00:14:05,VALID,917.655,VALID,0,VALID,95.9559,VALID,0,VALID,19.9743,VALID,145,VALID,0.86875,
2012-02-07, 00:15:05,VALID,917.645,VALID,0,VALID,95.9178,VALID,0,VALID,19.9758,VALID,140,VALID,1.13828,
2012-02-07, 00:16:05,VALID,917.655,VALID,0,VALID,95.9026,VALID,0,VALID,19.9953,VALID,140,VALID,0.964453,
2012-02-07, 00:17:05,VALID,917.654,VALID,0,VALID,95.9026,VALID,0,VALID,19.9953,VALID,140,VALID,0.534766,
2012-02-07, 00:18:05,VALID,917.624,VALID,0,VALID,95.8721,VALID,0,VALID,19.9743,VALID,140,VALID,0.564453,
2012-02-07, 00:19:05,VALID,917.63,VALID,0,VALID,95.8263,VALID,0.107441,VALID,19.9743,VALID,140,VALID,0.720312,
2012-02-07, 00:20:05,VALID,917.638,VALID,0,VALID,95.8263,VALID,0,VALID,19.9743,VALID,140,VALID,0.663672,
2012-02-07, 00:21:05,VALID,917.609,VALID,0,VALID,95.7577,VALID,0,VALID,19.9938,VALID,140,VALID,0.499609,
2012-02-07, 00:22:05,VALID,917.562,VALID,0,VALID,95.7577,VALID,0.107441,VALID,20.0133,VALID,140,VALID,0.551562,
2012-02-07, 00:23:05,VALID,917.597,VALID,0,VALID,95.7196,VALID,0.107441,VALID,20.0133,VALID,140,VALID,0.371875,
2012-02-07, 00:24:05,VALID,917.55,VALID,0,VALID,95.6967,VALID,0,VALID,20.0343,VALID,141,VALID,0.0128906,
2012-02-07, 00:25:05,VALID,917.514,VALID,0,VALID,95.651,VALID,0.107441,VALID,20.0343,VALID,140,VALID,0.485938,
2012-02-07, 00:26:05,VALID,917.5,VALID,0,VALID,95.6586,VALID,0,VALID,20.0328,VALID,140,VALID,0.299219,
2012-02-07, 00:27:05,VALID,917.48,VALID,0,VALID,95.59,VALID,0,VALID,20.0523,VALID,140,VALID,0.446094,
2012-02-07, 00:28:05,VALID,917.466,VALID,0,VALID,95.5519,VALID,0,VALID,20.0343,VALID,140,VALID,0.533594,
2012-02-07, 00:29:05,VALID,917.462,VALID,0,VALID,95.4757,VALID,0,VALID,20.0733,VALID,140,VALID,0.562109,
2012-02-07, 00:30:05,VALID,917.424,VALID,0,VALID,95.4223,VALID,0,VALID,20.0733,VALID,140,VALID,0.6375,
2012-02-07, 00:31:05,VALID,917.407,VALID,0,VALID,95.3766,VALID,0,VALID,20.0538,VALID,144,VALID,0.611719,
2012-02-07, 00:32:05,VALID,917.367,VALID,0,VALID,95.3308,VALID,0,VALID,20.0733,VALID,153,VALID,0.541016,
2012-02-07, 00:33:05,VALID,917.383,VALID,0,VALID,95.2927,VALID,0,VALID,20.0733,VALID,153,VALID,0.915234,
2012-02-07, 00:34:05,VALID,917.362,VALID,0,VALID,95.247,VALID,0,VALID,20.0928,VALID,153,VALID,0.916797,
2012-02-07, 00:35:05,VALID,917.37,VALID,0,VALID,95.2088,VALID,0,VALID,20.0928,VALID,153,VALID,0.573438,
2012-02-07, 00:36:05,VALID,917.363,VALID,0,VALID,95.1479,VALID,0,VALID,20.1123,VALID,153,VALID,0.326172,
2012-02-07, 00:37:05,VALID,917.389,VALID,0,VALID,95.0945,VALID,0,VALID,20.1123,VALID,153,VALID,0.218359,
2012-02-07, 00:38:05,VALID,917.366,VALID,0,VALID,95.0488,VALID,0,VALID,20.1318,VALID,153,VALID,0.389453,
2012-02-07, 00:39:05,VALID,917.392,VALID,0,VALID,95.0183,VALID,0,VALID,20.1513,VALID,153,VALID,0.399609,
2012-02-07, 00:40:05,VALID,917.416,VALID,0,VALID,94.9649,VALID,0,VALID,20.1724,VALID,153,VALID,0.0949219,
2012-02-07, 00:41:05,VALID,917.444,VALID,0,VALID,94.9192,VALID,0,VALID,20.1708,VALID,153,VALID,0.178906,
2012-02-07, 00:42:05,VALID,917.416,VALID,0,VALID,94.8963,VALID,0,VALID,20.1708,VALID,153,VALID,0.255078,
2012-02-07, 00:43:05,VALID,917.467,VALID,0,VALID,94.8582,VALID,0,VALID,20.1888,VALID,153,VALID,0.39375,
2012-02-07, 00:44:05,VALID,917.475,VALID,0,VALID,94.8277,VALID,0,VALID,20.2098,VALID,153,VALID,0.0972656,
2012-02-07, 00:45:05,VALID,917.459,VALID,0,VALID,94.82,VALID,0,VALID,20.2278,VALID,153,VALID,0.141797,
2012-02-07, 00:46:05,VALID,917.464,VALID,0,VALID,94.8887,VALID,0,VALID,20.2278,VALID,153,VALID,0,
2012-02-07, 00:47:05,VALID,917.46,VALID,0,VALID,94.8429,VALID,0,VALID,20.2473,VALID,153,VALID,0.00117188,
2012-02-07, 00:48:05,VALID,917.452,VALID,0,VALID,94.8505,VALID,0,VALID,20.2278,VALID,153,VALID,0.337891,
2012-02-07, 00:49:05,VALID,917.452,VALID,0,VALID,94.7819,VALID,0,VALID,20.2083,VALID,153,VALID,0.514063,
2012-02-07, 00:50:04,VALID,917.444,VALID,0,VALID,94.7819,VALID,0,VALID,20.1693,VALID,153,VALID,0.561328,
2012-02-07, 00:51:04,VALID,917.453,VALID,0,VALID,94.8048,VALID,0.107441,VALID,20.1498,VALID,153,VALID,0.714063,
2012-02-07, 00:52:04,VALID,917.447,VALID,0,VALID,94.8887,VALID,0.107441,VALID,20.1108,VALID,153,VALID,0.472656,
2012-02-07, 00:53:04,VALID,917.448,VALID,0,VALID,95.003,VALID,0,VALID,20.0898,VALID,153,VALID,0.307422,
2012-02-07, 00:54:04,VALID,917.454,VALID,0,VALID,95.1402,VALID,0,VALID,20.0913,VALID,153,VALID,0.19375,
2012-02-07, 00:55:04,VALID,917.405,VALID,0,VALID,95.2012,VALID,0,VALID,20.1108,VALID,153,VALID,0.4,
2012-02-07, 00:56:04,VALID,917.408,VALID,0,VALID,95.2012,VALID,0,VALID,20.0913,VALID,153,VALID,0.60625,
2012-02-07, 00:57:04,VALID,917.385,VALID,0,VALID,95.2622,VALID,0.107441,VALID,20.0523,VALID,153,VALID,0.522266,
2012-02-07, 00:58:04,VALID,917.384,VALID,0,VALID,95.3079,VALID,0,VALID,20.0328,VALID,153,VALID,0.596094,
2012-02-07, 00:59:04,VALID,917.339,VALID,0,VALID,95.3994,VALID,0,VALID,20.0343,VALID,153,VALID,0.717188,
2012-02-07, 01:00:04,VALID,917.292,VALID,0,VALID,95.4528,VALID,0,VALID,20.0148,VALID,153,VALID,0.736719,
2012-02-07, 01:01:04,VALID,917.304,VALID,0,VALID,95.4909,VALID,0,VALID,19.9938,VALID,141,VALID,0.973828,
2012-02-07, 01:02:04,VALID,917.354,VALID,0,VALID,95.5595,VALID,0,VALID,19.9953,VALID,121,VALID,0.910937,
2012-02-07, 01:03:04,VALID,917.32,VALID,0,VALID,95.6205,VALID,0,VALID,19.9758,VALID,122,VALID,1.11094,
2012-02-07, 01:04:04,VALID,917.33,VALID,0,VALID,95.6815,VALID,0,VALID,19.9758,VALID,122,VALID,1.09687,
2012-02-07, 01:05:04,VALID,917.315,VALID,0,VALID,95.712,VALID,0,VALID,19.9953,VALID,122,VALID,1.00937,
2012-02-07, 01:06:04,VALID,917.323,VALID,0,VALID,95.7654,VALID,0,VALID,19.9953,VALID,121,VALID,1.07969,
2012-02-07, 01:07:04,VALID,917.316,VALID,0,VALID,95.8111,VALID,0,VALID,19.9953,VALID,122,VALID,1.02695,
2012-02-07, 01:08:04,VALID,917.359,VALID,0,VALID,95.8568,VALID,0,VALID,19.9953,VALID,122,VALID,0.903906,
2012-02-07, 01:09:04,VALID,917.328,VALID,0,VALID,95.8797,VALID,0,VALID,20.0148,VALID,121,VALID,0.636719,
2012-02-07, 01:10:04,VALID,917.32,VALID,0,VALID,95.8873,VALID,0,VALID,20.0148,VALID,121,VALID,0.785547,
2012-02-07, 01:11:04,VALID,917.277,VALID,0,VALID,95.9331,VALID,0,VALID,20.0148,VALID,122,VALID,1.15391,
2012-02-07, 01:12:04,VALID,917.242,VALID,0,VALID,95.9026,VALID,0,VALID,20.0148,VALID,122,VALID,0.797656,
2012-02-07, 01:13:04,VALID,917.233,VALID,0,VALID,95.9483,VALID,0.107441,VALID,20.0133,VALID,122,VALID,1.08438,
2012-02-07, 01:14:04,VALID,917.184,VALID,0,VALID,95.9559,VALID,0,VALID,19.9938,VALID,122,VALID,1.03008,
2012-02-07, 01:15:04,VALID,917.176,VALID,0,VALID,95.9483,VALID,0,VALID,19.9938,VALID,121,VALID,1.16797,
2012-02-07, 01:16:04,VALID,917.133,VALID,0,VALID,96.0017,VALID,0,VALID,19.9743,VALID,122,VALID,1.34922,
2012-02-07, 01:17:04,VALID,917.145,VALID,0,VALID,96.0169,VALID,0,VALID,19.9548,VALID,122,VALID,0.589453,
2012-02-07, 01:18:04,VALID,917.135,VALID,0,VALID,96.055,VALID,0,VALID,19.9758,VALID,122,VALID,1.24258,
2012-02-07, 01:19:04,VALID,917.138,VALID,0,VALID,96.1008,VALID,0,VALID,19.9548,VALID,121,VALID,0.524219,
2012-02-07, 01:20:04,VALID,917.163,VALID,0,VALID,96.1084,VALID,0,VALID,19.9743,VALID,132,VALID,0.519922,
2012-02-07, 01:21:04,VALID,917.165,VALID,0,VALID,96.116,VALID,0,VALID,19.9548,VALID,132,VALID,0.756641,
2012-02-07, 01:22:04,VALID,917.192,VALID,0,VALID,96.0932,VALID,0,VALID,19.9548,VALID,132,VALID,0.546875,
2012-02-07, 01:23:04,VALID,917.19,VALID,0,VALID,96.0932,VALID,0,VALID,19.9533,VALID,132,VALID,0.513672,
2012-02-07, 01:24:04,VALID,917.156,VALID,0,VALID,96.1236,VALID,0,VALID,19.9938,VALID,132,VALID,0.324219,
2012-02-07, 01:25:04,VALID,917.157,VALID,0,VALID,96.1084,VALID,0,VALID,19.9938,VALID,132,VALID,0.179297,
2012-02-07, 01:26:04,VALID,917.145,VALID,0,VALID,96.116,VALID,0,VALID,19.9728,VALID,132,VALID,0.0503906,
2012-02-07, 01:27:04,VALID,917.094,VALID,0,VALID,96.1236,VALID,0,VALID,20.0133,VALID,132,VALID,0.00117188,
2012-02-07, 01:28:04,VALID,917.061,VALID,0,VALID,96.1465,VALID,0,VALID,20.0328,VALID,132,VALID,0,
2012-02-07, 01:29:04,VALID,917.072,VALID,0,VALID,96.0932,VALID,0,VALID,20.0133,VALID,132,VALID,0.378516,
2012-02-07, 01:30:04,VALID,917.039,VALID,0,VALID,96.1084,VALID,0.107441,VALID,20.0328,VALID,132,VALID,0,
2012-02-07, 01:31:04,VALID,917.078,VALID,0,VALID,96.0627,VALID,0.107441,VALID,19.9923,VALID,132,VALID,0,
2012-02-07, 01:32:04,VALID,917.053,VALID,0,VALID,96.1236,VALID,0,VALID,20.0328,VALID,132,VALID,0.229297,
2012-02-07, 01:33:04,VALID,917.079,VALID,0,VALID,96.116,VALID,0,VALID,20.0523,VALID,132,VALID,0,
2012-02-07, 01:34:04,VALID,917.069,VALID,0.2,VALID,96.1846,VALID,0,VALID,20.0718,VALID,132,VALID,0.354688,
2012-02-07, 01:35:04,VALID,917.094,VALID,0,VALID,96.116,VALID,0.107441,VALID,20.0718,VALID,132,VALID,0.575391,
2012-02-07, 01:36:04,VALID,917.103,VALID,0,VALID,96.1541,VALID,0,VALID,20.0913,VALID,132,VALID,0.723047,
2012-02-07, 01:37:04,VALID,917.108,VALID,0.2,VALID,96.0855,VALID,0,VALID,20.0718,VALID,132,VALID,0.744531,
2012-02-07, 01:38:04,VALID,917.104,VALID,0.2,VALID,96.1084,VALID,0,VALID,20.0313,VALID,132,VALID,0.816406,
2012-02-07, 01:39:04,VALID,917.066,VALID,0.2,VALID,96.1389,VALID,0.107441,VALID,19.9923,VALID,132,VALID,0.510156,
2012-02-07, 01:40:04,VALID,917.084,VALID,0,VALID,96.1999,VALID,0.107441,VALID,19.9923,VALID,132,VALID,0.542969,
2012-02-07, 01:41:04,VALID,917.04,VALID,0,VALID,96.2304,VALID,0,VALID,19.9938,VALID,132,VALID,0.438672,
2012-02-07, 01:42:04,VALID,917.079,VALID,0.2,VALID,96.2304,VALID,0,VALID,19.9743,VALID,132,VALID,0.710938,
2012-02-07, 01:43:04,VALID,917.099,VALID,0,VALID,96.3295,VALID,0.107441,VALID,19.9548,VALID,132,VALID,0.316797,
2012-02-07, 01:44:04,VALID,917.093,VALID,0.2,VALID,96.3905,VALID,0.107441,VALID,20.0133,VALID,132,VALID,0.501562,
2012-02-07, 01:45:04,VALID,917.071,VALID,0.4,VALID,96.4896,VALID,0.107441,VALID,20.0538,VALID,132,VALID,0.916406,
2012-02-07, 01:46:04,VALID,917.049,VALID,0.4,VALID,96.4972,VALID,0.107441,VALID,20.0343,VALID,132,VALID,0.588281,
2012-02-07, 01:47:04,VALID,917.031,VALID,0.6,VALID,96.5353,VALID,0.107441,VALID,20.0343,VALID,132,VALID,0.0617188,
2012-02-07, 01:48:04,VALID,917.034,VALID,0.6,VALID,96.5506,VALID,0.107441,VALID,20.0328,VALID,132,VALID,0.416406,
2012-02-07, 01:49:04,VALID,917.023,VALID,0.6,VALID,96.5963,VALID,0.107441,VALID,20.0133,VALID,132,VALID,0.510547,
2012-02-07, 01:50:04,VALID,917.018,VALID,0.6,VALID,96.6192,VALID,0.107441,VALID,20.0133,VALID,132,VALID,0.657031,
2012-02-07, 01:51:04,VALID,916.979,VALID,0.4,VALID,96.642,VALID,0,VALID,19.9743,VALID,132,VALID,0.448438,
2012-02-07, 01:52:04,VALID,916.99,VALID,0.2,VALID,96.6725,VALID,0.107441,VALID,19.9743,VALID,132,VALID,0.000390625,
2012-02-07, 01:53:04,VALID,916.967,VALID,0.6,VALID,96.7793,VALID,0.107441,VALID,20.0118,VALID,132,VALID,0.548047,
2012-02-07, 01:54:04,VALID,916.958,VALID,0.2,VALID,96.7869,VALID,0,VALID,20.0523,VALID,42,VALID,0.949219,
2012-02-07, 01:55:04,VALID,916.952,VALID,0.2,VALID,96.7564,VALID,0.107441,VALID,20.0523,VALID,42,VALID,0.802734,
2012-02-07, 01:56:04,VALID,916.947,VALID,0.2,VALID,96.7716,VALID,0.107441,VALID,20.0343,VALID,42,VALID,0.894531,
2012-02-07, 01:57:04,VALID,916.929,VALID,0,VALID,96.7716,VALID,0,VALID,19.9938,VALID,42,VALID,0.729688,
2012-02-07, 01:58:04,VALID,916.952,VALID,0.2,VALID,96.8174,VALID,0,VALID,19.9938,VALID,42,VALID,0.246094,
2012-02-07, 01:59:04,VALID,916.909,VALID,0,VALID,96.8936,VALID,0,VALID,20.0148,VALID,42,VALID,0,
2012-02-07, 02:00:04,VALID,916.92,VALID,0.2,VALID,96.9012,VALID,0.107441,VALID,20.0328,VALID,42,VALID,0.36875,
2012-02-07, 02:01:04,VALID,916.92,VALID,0.2,VALID,96.8555,VALID,0.107441,VALID,19.9728,VALID,42,VALID,0.161328,
2012-02-07, 02:02:04,VALID,916.881,VALID,0,VALID,96.9089,VALID,0.107441,VALID,20.0148,VALID,42,VALID,0.0507813,
2012-02-07, 02:03:04,VALID,916.875,VALID,0.2,VALID,96.9394,VALID,0.107441,VALID,20.0133,VALID,42,VALID,0.122266,
2012-02-07, 02:04:04,VALID,916.868,VALID,0.2,VALID,96.9394,VALID,0.107441,VALID,20.0133,VALID,42,VALID,0,
2012-02-07, 02:05:04,VALID,916.88,VALID,0.2,VALID,96.9698,VALID,0,VALID,20.0148,VALID,42,VALID,0.335938,
2012-02-07, 02:06:04,VALID,916.856,VALID,0.2,VALID,96.9241,VALID,0.107441,VALID,19.9938,VALID,42,VALID,1.01992,
2012-02-07, 02:07:04,VALID,916.823,VALID,0,VALID,96.947,VALID,0.107441,VALID,19.9743,VALID,42,VALID,1.1625,
2012-02-07, 02:08:04,VALID,916.829,VALID,0,VALID,96.9775,VALID,0.107441,VALID,19.9743,VALID,42,VALID,0.951563,
2012-02-07, 02:09:04,VALID,916.867,VALID,0.2,VALID,96.9317,VALID,0,VALID,19.9548,VALID,58,VALID,1.2043,
2012-02-07, 02:10:04,VALID,916.829,VALID,0,VALID,96.9394,VALID,0.107441,VALID,19.9353,VALID,58,VALID,0.707812,
2012-02-07, 02:11:04,VALID,916.814,VALID,0.2,VALID,96.9622,VALID,0.107441,VALID,19.9158,VALID,58,VALID,0.574219,
2012-02-07, 02:12:04,VALID,916.804,VALID,0.2,VALID,96.9775,VALID,0.107441,VALID,19.8963,VALID,58,VALID,0.786719,
2012-02-07, 02:13:04,VALID,916.77,VALID,0,VALID,96.9851,VALID,0.107441,VALID,19.8768,VALID,58,VALID,0.773828,
2012-02-07, 02:14:04,VALID,916.733,VALID,0,VALID,97.069,VALID,0,VALID,19.8768,VALID,58,VALID,1.06992,
2012-02-07, 02:15:04,VALID,916.732,VALID,0.2,VALID,97.069,VALID,0.107441,VALID,19.8768,VALID,43,VALID,1.15508,
2012-02-07, 02:16:04,VALID,916.701,VALID,0,VALID,97.0918,VALID,0,VALID,19.9173,VALID,45,VALID,1.03437,
2012-02-07, 02:17:04,VALID,916.712,VALID,0.2,VALID,97.1223,VALID,0,VALID,19.8963,VALID,19,VALID,1.33086,
2012-02-07, 02:18:04,VALID,916.717,VALID,0.2,VALID,97.1147,VALID,0,VALID,19.8963,VALID,45,VALID,1.3332,
2012-02-07, 02:19:04,VALID,916.684,VALID,0,VALID,97.1147,VALID,0.107441,VALID,19.9368,VALID,41,VALID,1.6168,
2012-02-07, 02:20:04,VALID,916.697,VALID,0.2,VALID,97.1604,VALID,0,VALID,19.9353,VALID,37,VALID,1.45859,
2012-02-07, 02:21:04,VALID,916.672,VALID,0.2,VALID,97.1681,VALID,0,VALID,19.9353,VALID,42,VALID,1.11602,
2012-02-07, 02:22:04,VALID,916.665,VALID,0.2,VALID,97.1528,VALID,0,VALID,19.9353,VALID,42,VALID,1.49141,
2012-02-07, 02:23:04,VALID,916.663,VALID,0.2,VALID,97.1376,VALID,0,VALID,19.9368,VALID,42,VALID,1.19453,
2012-02-07, 02:24:04,VALID,916.63,VALID,0.2,VALID,97.1071,VALID,0,VALID,19.8963,VALID,42,VALID,1.49375,
2012-02-07, 02:25:04,VALID,916.596,VALID,0,VALID,97.1452,VALID,0.107441,VALID,19.8768,VALID,42,VALID,1.19102,
2012-02-07, 02:26:04,VALID,916.579,VALID,0,VALID,97.1681,VALID,0,VALID,19.8768,VALID,42,VALID,1.12773,
2012-02-07, 02:27:04,VALID,916.531,VALID,0.2,VALID,97.1604,VALID,0.107441,VALID,19.8768,VALID,42,VALID,0.732422,
2012-02-07, 02:28:04,VALID,916.548,VALID,0,VALID,97.1833,VALID,0.107441,VALID,19.8963,VALID,42,VALID,0.705859,
2012-02-07, 02:29:04,VALID,916.519,VALID,0,VALID,97.1909,VALID,0.107441,VALID,19.8768,VALID,42,VALID,0.927344,
2012-02-07, 02:30:04,VALID,916.481,VALID,0,VALID,97.2062,VALID,0.107441,VALID,19.8963,VALID,42,VALID,0.928516,
2012-02-07, 02:31:04,VALID,916.487,VALID,0,VALID,97.2214,VALID,0.107441,VALID,19.8963,VALID,28,VALID,0.852344,
2012-02-07, 02:32:04,VALID,916.495,VALID,0,VALID,97.2138,VALID,0,VALID,19.8768,VALID,16,VALID,0.937109,
2012-02-07, 02:33:04,VALID,916.503,VALID,0,VALID,97.2138,VALID,0,VALID,19.8783,VALID,16,VALID,0.882422,
2012-02-07, 02:34:04,VALID,916.495,VALID,0,VALID,97.2214,VALID,0.107441,VALID,19.8978,VALID,16,VALID,1.25039,
2012-02-07, 02:35:04,VALID,916.482,VALID,0,VALID,97.2367,VALID,0,VALID,19.8573,VALID,26,VALID,0.903906,
2012-02-07, 02:36:04,VALID,916.479,VALID,0.2,VALID,97.2443,VALID,0,VALID,19.8768,VALID,42,VALID,1.0082,
2012-02-07, 02:37:04,VALID,916.49,VALID,0,VALID,97.2748,VALID,0.107441,VALID,19.8978,VALID,41,VALID,0.784766,
2012-02-07, 02:38:04,VALID,916.509,VALID,0,VALID,97.2595,VALID,0,VALID,19.8768,VALID,41,VALID,0.747656,
2012-02-07, 02:39:04,VALID,916.49,VALID,0,VALID,97.2595,VALID,0,VALID,19.8978,VALID,41,VALID,0.946094,
2012-02-07, 02:40:04,VALID,916.482,VALID,0,VALID,97.2519,VALID,0.107441,VALID,19.8768,VALID,41,VALID,0.7875,
2012-02-07, 02:41:04,VALID,916.473,VALID,0,VALID,97.29,VALID,0.107441,VALID,19.8978,VALID,41,VALID,1.16289,
2012-02-07, 02:42:04,VALID,916.486,VALID,0,VALID,97.2824,VALID,0.107441,VALID,19.8978,VALID,41,VALID,0.935547,
2012-02-07, 02:43:04,VALID,916.484,VALID,0.2,VALID,97.2977,VALID,0,VALID,19.8963,VALID,41,VALID,1.20156,
2012-02-07, 02:44:04,VALID,916.473,VALID,0,VALID,97.2824,VALID,0,VALID,19.8768,VALID,41,VALID,0.891016,
2012-02-07, 02:45:04,VALID,916.468,VALID,0,VALID,97.3129,VALID,0,VALID,19.8558,VALID,41,VALID,0.602344,
2012-02-07, 02:46:04,VALID,916.47,VALID,0,VALID,97.3205,VALID,0,VALID,19.8963,VALID,41,VALID,0.984375,
2012-02-07, 02:47:04,VALID,916.441,VALID,0.2,VALID,97.3129,VALID,0.107441,VALID,19.8963,VALID,41,VALID,0.813672,
2012-02-07, 02:48:04,VALID,916.427,VALID,0,VALID,97.3205,VALID,0,VALID,19.9173,VALID,41,VALID,0.450391,
2012-02-07, 02:49:04,VALID,916.429,VALID,0,VALID,97.351,VALID,0,VALID,19.9158,VALID,41,VALID,0.472656,
2012-02-07, 02:50:04,VALID,916.417,VALID,0.2,VALID,97.3586,VALID,0,VALID,19.9563,VALID,41,VALID,0.527344,
2012-02-07, 02:51:04,VALID,916.442,VALID,0,VALID,97.3815,VALID,0,VALID,19.9548,VALID,41,VALID,0.649609,
2012-02-07, 02:52:04,VALID,916.428,VALID,0,VALID,97.3968,VALID,0,VALID,19.9743,VALID,18,VALID,0.746094,
2012-02-07, 02:53:04,VALID,916.44,VALID,0,VALID,97.351,VALID,0,VALID,19.9743,VALID,342,VALID,0.531641,
2012-02-07, 02:54:04,VALID,916.468,VALID,0.2,VALID,97.3205,VALID,0,VALID,19.9953,VALID,342,VALID,0.473047,
2012-02-07, 02:55:04,VALID,916.462,VALID,0,VALID,97.3281,VALID,0,VALID,19.9743,VALID,342,VALID,0.391797,
2012-02-07, 02:56:04,VALID,916.452,VALID,0,VALID,97.29,VALID,0.107441,VALID,19.9563,VALID,342,VALID,0.335156,
2012-02-07, 02:57:04,VALID,916.456,VALID,0,VALID,97.3129,VALID,0,VALID,19.9353,VALID,342,VALID,0.483594,
2012-02-07, 02:58:04,VALID,916.475,VALID,0.2,VALID,97.2977,VALID,0,VALID,19.8963,VALID,342,VALID,0.414063,
2012-02-07, 02:59:04,VALID,916.448,VALID,0,VALID,97.3434,VALID,0,VALID,19.9368,VALID,342,VALID,0,
2012-02-07, 03:00:04,VALID,916.472,VALID,0,VALID,97.3663,VALID,0,VALID,19.9353,VALID,342,VALID,0,
2012-02-07, 03:01:04,VALID,916.458,VALID,0,VALID,97.4044,VALID,0,VALID,19.9758,VALID,342,VALID,0.253906,
2012-02-07, 03:02:04,VALID,916.466,VALID,0.2,VALID,97.3586,VALID,0,VALID,19.9368,VALID,342,VALID,0.31875,
2012-02-07, 03:03:04,VALID,916.44,VALID,0,VALID,97.3815,VALID,0,VALID,19.9563,VALID,342,VALID,0,
2012-02-07, 03:04:04,VALID,916.468,VALID,0,VALID,97.3815,VALID,0,VALID,19.9758,VALID,342,VALID,0,
2012-02-07, 03:05:04,VALID,916.486,VALID,0.4,VALID,97.3891,VALID,0,VALID,19.9758,VALID,342,VALID,0,
2012-02-07, 03:06:04,VALID,916.464,VALID,0.2,VALID,97.412,VALID,0,VALID,19.9758,VALID,342,VALID,0.165234,
2012-02-07, 03:07:04,VALID,916.493,VALID,0.2,VALID,97.3968,VALID,0,VALID,19.9743,VALID,342,VALID,0.084375,
2012-02-07, 03:08:04,VALID,916.452,VALID,0.2,VALID,97.3968,VALID,0,VALID,19.9938,VALID,342,VALID,0.208594,
2012-02-07, 03:09:04,VALID,916.447,VALID,0.6,VALID,97.3586,VALID,0,VALID,19.9938,VALID,342,VALID,0.366406,
2012-02-07, 03:10:04,VALID,916.43,VALID,0.4,VALID,97.3663,VALID,0.107441,VALID,19.9743,VALID,342,VALID,0.297656,
2012-02-07, 03:11:04,VALID,916.442,VALID,0.6,VALID,97.3586,VALID,0,VALID,19.9758,VALID,342,VALID,0.176953,
2012-02-07, 03:12:04,VALID,916.45,VALID,1,VALID,97.3739,VALID,0,VALID,19.9953,VALID,342,VALID,0.346875,
2012-02-07, 03:13:04,VALID,916.446,VALID,1,VALID,97.3586,VALID,0,VALID,19.9548,VALID,342,VALID,0.478516,
2012-02-07, 03:14:04,VALID,916.468,VALID,1.2,VALID,97.3358,VALID,0,VALID,19.9353,VALID,342,VALID,0.603906,
2012-02-07, 03:15:04,VALID,916.471,VALID,1.2,VALID,97.3815,VALID,0,VALID,19.9353,VALID,342,VALID,0.102734,
2012-02-07, 03:16:04,VALID,916.507,VALID,1,VALID,97.412,VALID,0,VALID,19.9548,VALID,342,VALID,0,
2012-02-07, 03:17:04,VALID,916.486,VALID,0.6,VALID,97.412,VALID,0,VALID,19.9743,VALID,342,VALID,0.364062,
2012-02-07, 03:18:04,VALID,916.487,VALID,0.6,VALID,97.4044,VALID,0,VALID,19.9743,VALID,342,VALID,0,
2012-02-07, 03:19:04,VALID,916.499,VALID,0.4,VALID,97.4501,VALID,0,VALID,20.0133,VALID,342,VALID,0.0269531,
2012-02-07, 03:20:04,VALID,916.509,VALID,0.2,VALID,97.4349,VALID,0,VALID,20.0133,VALID,342,VALID,0.51875,
2012-02-07, 03:21:04,VALID,916.541,VALID,0.2,VALID,97.4425,VALID,0,VALID,20.0328,VALID,342,VALID,0.710938,
2012-02-07, 03:22:04,VALID,916.506,VALID,0.2,VALID,97.4044,VALID,0,VALID,20.0133,VALID,342,VALID,0.582031,
2012-02-07, 03:23:04,VALID,916.558,VALID,0.8,VALID,97.4349,VALID,0,VALID,20.0343,VALID,342,VALID,0.622266,
2012-02-07, 03:24:04,VALID,916.517,VALID,1.8,VALID,97.4273,VALID,0,VALID,20.0133,VALID,342,VALID,0.278516,
2012-02-07, 03:25:04,VALID,916.453,VALID,1.2,VALID,97.4273,VALID,0,VALID,20.0133,VALID,342,VALID,0.0046875,
2012-02-07, 03:26:04,VALID,916.425,VALID,0.8,VALID,97.4196,VALID,0,VALID,20.0133,VALID,33,VALID,0.892969,
2012-02-07, 03:27:04,VALID,916.38,VALID,0.8,VALID,97.4273,VALID,0.107441,VALID,20.0133,VALID,53,VALID,1.01914,
2012-02-07, 03:28:04,VALID,916.412,VALID,0.4,VALID,97.4196,VALID,0,VALID,20.0133,VALID,53,VALID,0.458594,
2012-02-07, 03:29:04,VALID,916.446,VALID,1,VALID,97.4425,VALID,0,VALID,20.0133,VALID,52,VALID,0,
2012-02-07, 03:30:04,VALID,916.456,VALID,1.4,VALID,97.412,VALID,0,VALID,20.0328,VALID,52,VALID,0,
2012-02-07, 03:31:04,VALID,916.435,VALID,1.4,VALID,97.4196,VALID,0,VALID,20.0343,VALID,52,VALID,0,
2012-02-07, 03:32:04,VALID,916.435,VALID,1.4,VALID,97.4425,VALID,0.107441,VALID,20.0133,VALID,52,VALID,0,
2012-02-07, 03:33:04,VALID,916.449,VALID,1.4,VALID,97.4273,VALID,0,VALID,20.0133,VALID,52,VALID,0.282031,
2012-02-07, 03:34:04,VALID,916.445,VALID,1.2,VALID,97.4349,VALID,0,VALID,20.0133,VALID,52,VALID,0.395703,
2012-02-07, 03:35:04,VALID,916.431,VALID,1.2,VALID,97.4577,VALID,0,VALID,20.0538,VALID,53,VALID,0.897266,
2012-02-07, 03:36:04,VALID,916.465,VALID,1.2,VALID,97.412,VALID,0,VALID,20.0133,VALID,53,VALID,0.967969,
2012-02-07, 03:37:04,VALID,916.479,VALID,0.8,VALID,97.3968,VALID,0,VALID,19.9743,VALID,66,VALID,1.20586,
2012-02-07, 03:38:04,VALID,916.481,VALID,0.2,VALID,97.3968,VALID,0,VALID,19.9758,VALID,133,VALID,1.11211,
2012-02-07, 03:39:04,VALID,916.5,VALID,0.2,VALID,97.4273,VALID,0,VALID,19.9758,VALID,133,VALID,0.735547,
2012-02-07, 03:40:04,VALID,916.529,VALID,0.6,VALID,97.4425,VALID,0,VALID,19.9548,VALID,133,VALID,0.119141,
2012-02-07, 03:41:04,VALID,916.526,VALID,0.8,VALID,97.4654,VALID,0,VALID,19.9548,VALID,133,VALID,0.777734,